This is the latest recevied weather packets stored in our database for station/object KD8FRE. If no packets are shown the sender has not sent any weather packets the latest 10 day(s).
| Time | Temp. | Humidity | Pressure | Rain* | Wind** | Luminosity | Snow |
|---|---|---|---|---|---|---|---|
| 1778069247 | 6.67° C | 72% | 1011.1 hPa | 0 mm | - | 90 W/m² | - |
| 1778068945 | 6.67° C | 71% | 1011.1 hPa | 0 mm | - | 112 W/m² | - |
| 1778068643 | 6.11° C | 70% | 1011.2 hPa | 0 mm | - | 62 W/m² | - |
| 1778068341 | 6.67° C | 70% | 1010.9 hPa | 0 mm | - | 55 W/m² | - |
| 1778068038 | 6.11° C | 70% | 1010.9 hPa | 0 mm | - | 66 W/m² | - |
| 1778067736 | 6.11° C | 69% | 1010.9 hPa | 0 mm | - | 49 W/m² | - |
| 1778067434 | 6.11° C | 68% | 1010.7 hPa | 0 mm | - | 57 W/m² | - |
| 1778067131 | 6.11° C | 68% | 1010.6 hPa | 0 mm | - | 44 W/m² | - |
| 1778066827 | 5.56° C | 69% | 1010.5 hPa | 0 mm | - | 44 W/m² | - |
| 1778066525 | 5.56° C | 71% | 1010.6 hPa | 0 mm | - | 25 W/m² | - |
| 1778066223 | 5.56° C | 69% | 1010.5 hPa | 0 mm | - | 16 W/m² | - |
| 1778065920 | 5.56° C | 68% | 1010.4 hPa | 0 mm | - | 15 W/m² | - |
| 1778065617 | 5.56° C | 68% | 1010.5 hPa | 0 mm | - | 13 W/m² | - |
| 1778065315 | 6.11° C | 68% | 1010.3 hPa | 0 mm | - | 12 W/m² | - |
| 1778065011 | 6.11° C | 68% | 1010.2 hPa | 0 mm | - | 10 W/m² | - |
| 1778064708 | 6.11° C | 66% | 1010 hPa | 0 mm | - | 8 W/m² | - |
| 1778064406 | 6.11° C | 66% | 1010 hPa | 0 mm | - | 6 W/m² | - |
| 1778064103 | 6.11° C | 66% | 1010 hPa | 0 mm | - | 5 W/m² | - |
| 1778063801 | 6.11° C | 65% | 1010 hPa | 0 mm | - | 3 W/m² | - |
| 1778063497 | 6.67° C | 64% | 1009.8 hPa | 0 mm | - | 2 W/m² | - |
| 1778063196 | 6.67° C | 64% | 1010.2 hPa | 0 mm | - | 1 W/m² | - |
| 1778062893 | 6.67° C | 64% | 1010.1 hPa | 0 mm | - | 1 W/m² | - |
| 1778062589 | 6.67° C | 63% | 1009.9 hPa | 0 mm | - | 0 W/m² | - |
| 1778062286 | 6.67° C | 61% | 1009.9 hPa | 0 mm | - | 0 W/m² | - |
| 1778061985 | 7.22° C | 61% | 1009.9 hPa | 0 mm | - | 0 W/m² | - |
* Rain latest hour (hover to see other rain measurements)
** Current wind speed in m/s (hover to see current wind gust speed)